Datum;Richtung;Anzahl Messungen;Anzahl Fahrzeuge;Durchschnittsgeschwindigkeit;Hoechstgeschwindigkeit
30.08.2022 00:00;1;3;3;33.00;41.00
30.08.2022 00:30;1;4;4;39.25;45.00
30.08.2022 01:00;1;4;4;34.50;36.00
30.08.2022 01:30;1;2;2;32.50;36.00
30.08.2022 02:00;1;1;1;30.00;30.00
30.08.2022 02:30;1;3;3;37.00;49.00
30.08.2022 03:00;1;3;3;38.00;48.00
30.08.2022 04:00;1;1;1;32.00;32.00
30.08.2022 04:30;1;3;3;29.00;32.00
30.08.2022 05:00;1;5;5;37.00;39.00
30.08.2022 05:30;1;4;4;32.75;37.00
30.08.2022 06:00;1;20;20;31.90;50.00
30.08.2022 06:30;1;26;26;32.77;49.00
30.08.2022 07:00;1;34;34;33.09;50.00
30.08.2022 07:30;1;44;44;31.41;43.00
30.08.2022 08:00;1;35;35;32.60;46.00
30.08.2022 08:30;1;54;54;32.91;51.00
30.08.2022 09:00;1;64;64;32.03;43.00
30.08.2022 09:30;1;58;58;30.00;40.00
30.08.2022 10:00;1;53;53;31.38;46.00
30.08.2022 10:30;1;79;79;30.54;47.00
30.08.2022 11:00;1;79;79;32.25;44.00
30.08.2022 11:30;1;79;79;31.06;50.00
30.08.2022 12:00;1;78;78;31.92;45.00
30.08.2022 12:30;1;70;70;32.23;49.00
30.08.2022 13:00;1;90;90;31.63;44.00
30.08.2022 13:30;1;83;83;34.87;63.00
30.08.2022 14:00;1;94;94;32.68;45.00
30.08.2022 14:30;1;94;94;30.14;48.00
30.08.2022 15:00;1;77;77;30.14;44.00
30.08.2022 15:30;1;104;104;31.45;44.00
30.08.2022 16:00;1;114;114;31.84;43.00
30.08.2022 16:30;1;132;132;30.33;48.00
30.08.2022 17:00;1;131;131;29.52;46.00
30.08.2022 17:30;1;106;106;30.93;46.00
30.08.2022 18:00;1;102;102;32.87;43.00
30.08.2022 18:30;1;89;89;33.16;49.00
30.08.2022 19:00;1;86;86;32.08;48.00
30.08.2022 19:30;1;70;70;32.96;50.00
30.08.2022 20:00;1;55;55;30.87;43.00
30.08.2022 20:30;1;38;38;29.55;43.00
30.08.2022 21:00;1;34;34;33.21;46.00
30.08.2022 21:30;1;27;27;31.26;48.00
30.08.2022 22:00;1;24;24;32.96;46.00
30.08.2022 22:30;1;21;21;30.86;38.00
30.08.2022 23:00;1;15;15;34.67;47.00
30.08.2022 23:30;1;11;11;31.91;44.00
31.08.2022 00:00;1;6;6;39.33;69.00
31.08.2022 00:30;1;3;3;33.67;45.00
31.08.2022 01:00;1;2;2;33.00;34.00
31.08.2022 01:30;1;5;5;26.20;41.00
31.08.2022 02:00;1;5;5;31.60;39.00
31.08.2022 02:30;1;1;1;36.00;36.00
31.08.2022 04:00;1;4;4;30.75;36.00
31.08.2022 04:30;1;6;6;31.67;53.00
31.08.2022 05:00;1;5;5;33.60;47.00
31.08.2022 05:30;1;3;3;36.00;43.00
31.08.2022 06:00;1;11;11;35.18;45.00
31.08.2022 06:30;1;25;25;30.88;45.00
31.08.2022 07:00;1;28;28;33.14;47.00
31.08.2022 07:30;1;24;24;30.21;42.00
31.08.2022 08:00;1;40;40;30.23;41.00
31.08.2022 08:30;1;41;41;28.93;38.00
31.08.2022 09:00;1;44;44;30.41;44.00
31.08.2022 09:30;1;53;53;30.94;44.00
31.08.2022 10:00;1;34;34;31.76;45.00
31.08.2022 10:30;1;54;54;31.43;44.00
31.08.2022 11:00;1;63;63;29.30;42.00
31.08.2022 11:30;1;69;69;31.97;45.00
31.08.2022 12:00;1;73;73;30.60;43.00
31.08.2022 12:30;1;67;67;33.15;54.00
31.08.2022 13:00;1;67;67;33.52;43.00
31.08.2022 13:30;1;50;50;32.54;43.00
31.08.2022 14:00;1;88;88;33.34;47.00
31.08.2022 14:30;1;78;78;33.50;44.00
31.08.2022 15:00;1;91;91;31.68;42.00
31.08.2022 15:30;1;87;87;32.87;46.00
31.08.2022 16:00;1;107;107;32.30;48.00
31.08.2022 16:30;1;123;123;31.32;45.00
31.08.2022 17:00;1;132;132;28.31;43.00
31.08.2022 17:30;1;117;117;28.48;47.00
31.08.2022 18:00;1;85;85;30.26;43.00
31.08.2022 18:30;1;97;97;30.76;44.00
31.08.2022 19:00;1;74;74;31.96;50.00
31.08.2022 19:30;1;51;51;31.22;49.00
31.08.2022 20:00;1;47;47;30.17;43.00
31.08.2022 20:30;1;41;41;32.85;52.00
31.08.2022 21:00;1;39;39;32.77;46.00
31.08.2022 21:30;1;38;38;31.82;43.00
31.08.2022 22:00;1;23;23;34.78;54.00
31.08.2022 22:30;1;22;22;32.14;53.00
31.08.2022 23:00;1;11;11;36.36;48.00
31.08.2022 23:30;1;13;13;35.77;51.00
01.09.2022 00:00;1;9;9;33.00;47.00
01.09.2022 00:30;1;6;6;35.67;46.00
01.09.2022 01:00;1;3;3;30.00;43.00
01.09.2022 01:30;1;1;1;36.00;36.00
01.09.2022 02:00;1;2;2;35.00;38.00
01.09.2022 02:30;1;1;1;32.00;32.00
01.09.2022 03:30;1;1;1;34.00;34.00
01.09.2022 04:00;1;1;1;25.00;25.00
01.09.2022 04:30;1;7;7;32.71;41.00
01.09.2022 05:00;1;7;7;32.14;39.00
01.09.2022 05:30;1;5;5;26.20;34.00
01.09.2022 06:00;1;21;21;32.00;44.00
01.09.2022 06:30;1;26;26;29.69;40.00
01.09.2022 07:00;1;43;43;30.67;42.00
01.09.2022 07:30;1;32;32;30.19;44.00
01.09.2022 08:00;1;42;42;32.17;46.00
01.09.2022 08:30;1;59;59;28.61;52.00
01.09.2022 09:00;1;45;45;29.33;38.00
01.09.2022 09:30;1;80;80;29.80;43.00
01.09.2022 10:00;1;63;63;28.37;44.00
01.09.2022 10:30;1;81;81;29.60;44.00
01.09.2022 11:00;1;62;62;33.48;57.00
01.09.2022 11:30;1;70;70;32.07;46.00
01.09.2022 12:00;1;80;80;31.60;46.00
01.09.2022 12:30;1;88;88;32.15;46.00
01.09.2022 13:00;1;63;63;30.81;44.00
01.09.2022 13:30;1;94;94;33.37;47.00
01.09.2022 14:00;1;69;69;31.29;46.00
01.09.2022 14:30;1;74;74;30.27;42.00
01.09.2022 15:00;1;86;86;31.70;41.00
01.09.2022 15:30;1;121;121;32.11;47.00
01.09.2022 16:00;1;113;113;31.46;44.00
01.09.2022 16:30;1;125;125;29.89;46.00
01.09.2022 17:00;1;120;120;29.66;42.00
01.09.2022 17:30;1;136;136;31.82;44.00
01.09.2022 18:00;1;107;107;33.05;43.00
01.09.2022 18:30;1;93;93;31.99;43.00
01.09.2022 19:00;1;62;62;32.61;44.00
01.09.2022 19:30;1;66;66;34.20;46.00
01.09.2022 20:00;1;39;39;30.49;40.00
01.09.2022 20:30;1;40;40;30.88;45.00
01.09.2022 21:00;1;21;21;33.52;43.00
01.09.2022 21:30;1;34;34;33.06;51.00
01.09.2022 22:00;1;26;26;31.73;44.00
01.09.2022 22:30;1;25;25;32.52;46.00
01.09.2022 23:00;1;5;5;35.40;43.00
01.09.2022 23:30;1;16;16;35.00;45.00
02.09.2022 00:00;1;6;6;34.67;46.00
02.09.2022 00:30;1;6;6;35.17;44.00
02.09.2022 01:00;1;1;1;42.00;42.00
02.09.2022 01:30;1;2;2;32.00;35.00
02.09.2022 02:00;1;2;2;31.50;32.00
02.09.2022 02:30;1;1;1;52.00;52.00
02.09.2022 03:00;1;1;1;55.00;55.00
02.09.2022 03:30;1;1;1;24.00;24.00
02.09.2022 04:30;1;7;7;30.00;39.00
02.09.2022 05:00;1;5;5;30.20;36.00
02.09.2022 05:30;1;5;5;31.40;40.00
02.09.2022 06:00;1;17;17;29.94;42.00
02.09.2022 06:30;1;22;22;28.95;37.00
02.09.2022 07:00;1;35;35;30.46;43.00
02.09.2022 07:30;1;48;48;32.02;46.00
02.09.2022 08:00;1;40;40;32.50;45.00
02.09.2022 08:30;1;51;51;30.61;44.00
02.09.2022 09:00;1;52;52;30.79;59.00
02.09.2022 09:30;1;61;61;29.21;43.00
02.09.2022 10:00;1;71;71;30.94;48.00
02.09.2022 10:30;1;72;72;30.25;43.00
02.09.2022 11:00;1;90;90;29.98;43.00
02.09.2022 11:30;1;86;86;32.33;46.00
02.09.2022 12:00;1;82;82;31.89;43.00
02.09.2022 12:30;1;120;120;32.73;49.00
02.09.2022 13:00;1;102;102;31.29;46.00
02.09.2022 13:30;1;82;82;32.63;45.00
02.09.2022 14:00;1;105;105;30.48;43.00
02.09.2022 14:30;1;102;102;32.63;44.00
02.09.2022 15:00;1;97;97;32.23;49.00
02.09.2022 15:30;1;115;115;31.75;44.00
02.09.2022 16:00;1;110;110;31.30;46.00
02.09.2022 16:30;1;122;122;31.56;52.00
02.09.2022 17:00;1;120;120;30.45;44.00
02.09.2022 17:30;1;105;105;33.50;49.00
02.09.2022 18:00;1;94;94;33.02;48.00
02.09.2022 18:30;1;75;75;31.87;43.00
02.09.2022 19:00;1;87;87;32.07;46.00
02.09.2022 19:30;1;46;46;32.91;46.00
02.09.2022 20:00;1;54;54;32.98;45.00
02.09.2022 20:30;1;35;35;35.00;56.00
02.09.2022 21:00;1;35;35;34.74;48.00
02.09.2022 21:30;1;41;41;33.85;45.00
02.09.2022 22:00;1;17;17;32.00;42.00
02.09.2022 22:30;1;27;27;35.37;55.00
02.09.2022 23:00;1;24;24;34.25;44.00
02.09.2022 23:30;1;17;17;35.82;41.00
03.09.2022 00:00;1;19;19;37.37;48.00
03.09.2022 00:30;1;8;8;35.62;45.00
03.09.2022 01:00;1;3;3;36.00;38.00
03.09.2022 01:30;1;4;4;40.50;53.00
03.09.2022 02:00;1;7;7;40.57;51.00
03.09.2022 02:30;1;4;4;35.25;46.00
03.09.2022 03:00;1;4;4;35.00;59.00
03.09.2022 03:30;1;2;2;41.00;45.00
03.09.2022 04:00;1;5;5;42.00;46.00
03.09.2022 04:30;1;5;5;33.80;47.00
03.09.2022 05:00;1;5;5;29.00;37.00
03.09.2022 05:30;1;5;5;35.60;41.00
03.09.2022 06:00;1;6;6;29.50;39.00
03.09.2022 06:30;1;7;7;32.29;47.00
03.09.2022 07:00;1;15;15;31. Jul;37.00
03.09.2022 07:30;1;12;12;33.17;43.00
03.09.2022 08:00;1;29;29;32.93;53.00
03.09.2022 08:30;1;37;37;28.49;41.00
03.09.2022 09:00;1;42;42;30.19;52.00
03.09.2022 09:30;1;66;66;28.41;39.00
03.09.2022 10:00;1;70;70;30.13;41.00
03.09.2022 10:30;1;93;93;30.16;43.00
03.09.2022 11:00;1;63;63;30.38;49.00
03.09.2022 11:30;1;68;68;30.26;43.00
03.09.2022 12:00;1;80;80;30.88;43.00
03.09.2022 12:30;1;68;68;33.82;45.00
03.09.2022 13:00;1;88;88;33.94;46.00
03.09.2022 13:30;1;69;69;32.65;44.00
03.09.2022 14:00;1;76;76;32.26;47.00
03.09.2022 14:30;1;75;75;31.20;49.00
03.09.2022 15:00;1;73;73;33.11;44.00
03.09.2022 15:30;1;56;56;34.59;54.00
03.09.2022 16:00;1;74;74;33.53;47.00
03.09.2022 16:30;1;72;72;30.96;46.00
03.09.2022 17:00;1;84;84;32.88;49.00
03.09.2022 17:30;1;96;96;33.75;48.00
03.09.2022 18:00;1;96;96;32.93;42.00
03.09.2022 18:30;1;73;73;33.93;48.00
03.09.2022 19:00;1;60;60;34.13;45.00
03.09.2022 19:30;1;49;49;33.96;56.00
03.09.2022 20:00;1;32;32;34.59;42.00
03.09.2022 20:30;1;32;32;33.84;44.00
03.09.2022 21:00;1;41;41;32.51;55.00
03.09.2022 21:30;1;20;20;31.90;43.00
03.09.2022 22:00;1;23;23;35.17;53.00
03.09.2022 22:30;1;19;19;36.21;43.00
03.09.2022 23:00;1;31;31;36.61;105.00
03.09.2022 23:30;1;60;60;33.08;45.00
04.09.2022 00:00;1;81;81;32.37;51.00
04.09.2022 00:30;1;78;78;34.97;59.00
04.09.2022 01:00;1;42;42;34.93;57.00
04.09.2022 01:30;1;24;24;35.17;53.00
04.09.2022 02:00;1;2;2;33.00;33.00
04.09.2022 02:30;1;5;5;37.80;44.00
04.09.2022 03:00;1;6;6;34.33;43.00
04.09.2022 03:30;1;4;4;35.50;40.00
04.09.2022 04:00;1;5;5;41.60;50.00
04.09.2022 04:30;1;1;1;45.00;45.00
04.09.2022 05:00;1;4;4;36.00;50.00
04.09.2022 05:30;1;4;4;42.50;53.00
04.09.2022 06:00;1;9;9;29. Nov;53.00
04.09.2022 06:30;1;6;6;37.50;44.00
04.09.2022 07:00;1;6;6;36.33;41.00
04.09.2022 07:30;1;17;17;28.00;37.00
04.09.2022 08:00;1;29;29;32.31;43.00
04.09.2022 08:30;1;24;24;32.83;49.00
04.09.2022 09:00;1;38;38;31.61;46.00
04.09.2022 09:30;1;64;64;31.67;49.00
04.09.2022 10:00;1;58;58;30.55;43.00
04.09.2022 10:30;1;88;88;32.65;46.00
04.09.2022 11:00;1;77;77;32.69;49.00
04.09.2022 11:30;1;78;78;31.92;48.00
04.09.2022 12:00;1;90;90;32.11;45.00
04.09.2022 12:30;1;86;86;32.00;47.00
04.09.2022 13:00;1;99;99;31.75;41.00
04.09.2022 13:30;1;97;97;33.69;49.00
04.09.2022 14:00;1;97;97;33.53;45.00
04.09.2022 14:30;1;87;87;32.52;53.00
04.09.2022 15:00;1;98;98;33.60;55.00
04.09.2022 15:30;1;73;73;31.81;44.00
04.09.2022 16:00;1;89;89;32.29;56.00
04.09.2022 16:30;1;80;80;31.90;48.00
04.09.2022 17:00;1;100;100;31.14;68.00
04.09.2022 17:30;1;84;84;31.42;44.00
04.09.2022 18:00;1;90;90;31.28;48.00
04.09.2022 18:30;1;61;61;34.57;51.00
04.09.2022 19:00;1;59;59;33.61;45.00
04.09.2022 19:30;1;61;61;33.64;43.00
04.09.2022 20:00;1;45;45;33.93;42.00
04.09.2022 20:30;1;45;45;33.02;52.00
04.09.2022 21:00;1;28;28;36.32;55.00
04.09.2022 21:30;1;32;32;37.12;48.00
04.09.2022 22:00;1;20;20;36.95;51.00
04.09.2022 22:30;1;16;16;31.44;40.00
04.09.2022 23:00;1;5;5;36.40;39.00
04.09.2022 23:30;1;7;7;35.14;50.00
05.09.2022 00:00;1;4;4;40.75;45.00
05.09.2022 00:30;1;5;5;39.80;46.00
05.09.2022 01:00;1;2;2;33.00;35.00
05.09.2022 02:30;1;1;1;34.00;34.00
05.09.2022 03:30;1;1;1;34.00;34.00
05.09.2022 04:30;1;9;9;31.78;43.00
05.09.2022 05:00;1;4;4;26.75;38.00
05.09.2022 05:30;1;7;7;35.00;48.00
05.09.2022 06:00;1;17;17;32.24;40.00
05.09.2022 06:30;1;29;29;29.97;43.00
05.09.2022 07:00;1;39;39;30.33;46.00
05.09.2022 07:30;1;43;43;31.56;45.00
05.09.2022 08:00;1;40;40;29.90;39.00
05.09.2022 08:30;1;52;52;30.46;45.00
05.09.2022 09:00;1;48;48;31.52;44.00
05.09.2022 09:30;1;57;57;29.70;38.00
05.09.2022 10:00;1;54;54;29.13;43.00
05.09.2022 10:30;1;63;63;30.13;46.00
05.09.2022 11:00;1;53;53;30. Jun;44.00
05.09.2022 11:30;1;95;95;31.80;48.00
05.09.2022 12:00;1;74;74;31.58;43.00
05.09.2022 12:30;1;93;93;29.73;43.00
05.09.2022 13:00;1;74;74;31.31;48.00
05.09.2022 13:30;1;67;67;33.46;59.00
05.09.2022 14:00;1;89;89;32.58;78.00
05.09.2022 14:30;1;80;80;30.54;44.00
05.09.2022 15:00;1;71;71;31.24;47.00
05.09.2022 15:30;1;104;104;31.36;47.00
05.09.2022 16:00;1;113;113;29.65;43.00
05.09.2022 16:30;1;120;120;29. Dez;45.00
05.09.2022 17:00;1;99;99;27.91;41.00
05.09.2022 17:30;1;116;116;29.71;49.00
05.09.2022 18:00;1;89;89;30.90;49.00
05.09.2022 18:30;1;95;95;30.54;43.00
05.09.2022 19:00;1;58;58;29.69;43.00
05.09.2022 19:30;1;58;58;30.60;43.00
05.09.2022 20:00;1;52;52;32.42;60.00
05.09.2022 20:30;1;47;47;32.19;58.00
05.09.2022 21:00;1;26;26;31.50;39.00
05.09.2022 21:30;1;20;20;31.40;47.00
05.09.2022 22:00;1;17;17;35.18;47.00
05.09.2022 22:30;1;18;18;31.78;54.00
05.09.2022 23:00;1;12;12;35.50;44.00
05.09.2022 23:30;1;6;6;33.00;43.00
06.09.2022 00:00;1;2;2;37.50;41.00
06.09.2022 00:30;1;6;6;38.17;46.00
06.09.2022 01:00;1;1;1;31.00;31.00
06.09.2022 01:30;1;6;6;33.83;43.00
06.09.2022 02:00;1;2;2;31.50;32.00
06.09.2022 02:30;1;2;2;35.50;37.00
06.09.2022 03:00;1;3;3;44.67;57.00
06.09.2022 03:30;1;1;1;33.00;33.00
06.09.2022 04:00;1;3;3;36.00;46.00
06.09.2022 04:30;1;6;6;32.83;38.00
06.09.2022 05:00;1;3;3;30.00;41.00
06.09.2022 05:30;1;9;9;35.44;48.00
06.09.2022 06:00;1;15;15;31.47;40.00
06.09.2022 06:30;1;36;36;30.36;44.00
06.09.2022 07:00;1;32;32;32.31;45.00
06.09.2022 07:30;1;53;53;30.26;68.00
06.09.2022 08:00;1;47;47;30.85;46.00
06.09.2022 08:30;1;53;53;31.28;47.00
06.09.2022 09:00;1;62;62;33.27;52.00
06.09.2022 09:30;1;63;63;30.76;43.00
06.09.2022 10:00;1;63;63;32.33;46.00
06.09.2022 10:30;1;60;60;30.18;40.00
06.09.2022 11:00;1;81;81;32.27;43.00
06.09.2022 11:30;1;60;60;31.80;49.00
06.09.2022 12:00;1;68;68;31.29;43.00
06.09.2022 12:30;1;76;76;32.80;46.00
06.09.2022 13:00;1;82;82;32.48;43.00
06.09.2022 13:30;1;65;65;32.09;47.00
06.09.2022 14:00;1;87;87;32.31;47.00
06.09.2022 14:30;1;68;68;32.40;45.00
06.09.2022 15:00;1;91;91;31.70;44.00
06.09.2022 15:30;1;106;106;29.33;40.00
06.09.2022 16:00;1;127;127;30.27;42.00
06.09.2022 16:30;1;147;147;29.97;51.00
06.09.2022 17:00;1;150;150;30.30;47.00
06.09.2022 17:30;1;141;141;30.59;54.00
06.09.2022 18:00;1;87;87;30.97;43.00
06.09.2022 18:30;1;82;82;30.94;42.00
06.09.2022 19:00;1;68;68;32.94;54.00
06.09.2022 19:30;1;53;53;31.57;48.00
06.09.2022 20:00;1;43;43;31.35;44.00
06.09.2022 20:30;1;46;46;29.50;42.00
06.09.2022 21:00;1;34;34;30. Mrz;39.00
06.09.2022 21:30;1;21;21;31.76;45.00
06.09.2022 22:00;1;32;32;30.34;46.00
06.09.2022 22:30;1;23;23;32.65;47.00
06.09.2022 23:00;1;5;5;31.80;38.00
06.09.2022 23:30;1;9;9;34.33;44.00
07.09.2022 00:00;1;7;7;39.43;55.00
07.09.2022 00:30;1;2;2;37.50;38.00
07.09.2022 01:00;1;1;1;27.00;27.00
07.09.2022 01:30;1;3;3;29.33;33.00
07.09.2022 03:00;1;2;2;46.50;52.00
07.09.2022 04:00;1;1;1;34.00;34.00
07.09.2022 04:30;1;8;8;30.75;40.00
07.09.2022 05:00;1;4;4;38.00;47.00
07.09.2022 05:30;1;10;10;36.80;70.00
07.09.2022 06:00;1;13;13;32.92;42.00
07.09.2022 06:30;1;23;23;30. Apr;43.00
07.09.2022 07:00;1;41;41;30.51;64.00
07.09.2022 07:30;1;46;46;29. Sep;46.00
07.09.2022 08:00;1;39;39;30.41;41.00
07.09.2022 08:30;1;46;46;31.37;43.00
07.09.2022 09:00;1;26;26;30.23;39.00
07.09.2022 09:30;1;50;50;29.22;51.00
07.09.2022 10:00;1;63;63;29.86;43.00
07.09.2022 10:30;1;60;60;29.50;45.00
07.09.2022 11:00;1;62;62;30.40;49.00
07.09.2022 11:30;1;79;79;30.89;43.00
07.09.2022 12:00;1;64;64;31.42;46.00
07.09.2022 12:30;1;59;59;30. Okt;43.00
07.09.2022 13:00;1;86;86;29.24;46.00
07.09.2022 13:30;1;89;89;32.83;57.00
07.09.2022 14:00;1;85;85;29.99;43.00
07.09.2022 14:30;1;72;72;33.04;50.00
07.09.2022 15:00;1;78;78;32.38;44.00
07.09.2022 15:30;1;100;100;32.19;46.00
07.09.2022 16:00;1;100;100;28.79;42.00
07.09.2022 16:30;1;132;132;29.86;42.00
07.09.2022 17:00;1;104;104;30. Mrz;44.00
07.09.2022 17:30;1;112;112;29. Jul;43.00
07.09.2022 18:00;1;101;101;29.94;48.00
07.09.2022 18:30;1;72;72;30.60;53.00
07.09.2022 19:00;1;81;81;30.90;44.00
07.09.2022 19:30;1;62;62;33.90;55.00
07.09.2022 20:00;1;46;46;32.37;50.00
07.09.2022 20:30;1;54;54;32.81;45.00
07.09.2022 21:00;1;26;26;34.38;55.00
07.09.2022 21:30;1;23;23;30. Sep;43.00
07.09.2022 22:00;1;17;17;29.00;37.00
07.09.2022 22:30;1;24;24;31.54;48.00
07.09.2022 23:00;1;14;14;36.00;53.00
07.09.2022 23:30;1;12;12;33.00;46.00
08.09.2022 00:00;1;14;14;34.50;43.00
08.09.2022 00:30;1;3;3;36.00;46.00
08.09.2022 01:00;1;6;6;32.83;39.00
08.09.2022 01:30;1;1;1;33.00;33.00
08.09.2022 02:00;1;3;3;33.67;37.00
08.09.2022 03:00;1;3;3;38.67;45.00
08.09.2022 03:30;1;3;3;27.33;35.00
08.09.2022 04:00;1;4;4;36.75;43.00
08.09.2022 04:30;1;7;7;27.29;34.00
08.09.2022 05:00;1;7;7;28.71;39.00
08.09.2022 05:30;1;7;7;31.86;42.00
08.09.2022 06:00;1;12;12;29.75;40.00
08.09.2022 06:30;1;21;21;33.19;46.00
08.09.2022 07:00;1;31;31;31.97;63.00
08.09.2022 07:30;1;38;38;29.53;37.00
08.09.2022 08:00;1;42;42;31.55;40.00
08.09.2022 08:30;1;42;42;28.88;43.00
08.09.2022 09:00;1;54;54;30.56;59.00
08.09.2022 09:30;1;62;62;30.74;41.00
08.09.2022 10:00;1;62;62;30.47;46.00
08.09.2022 10:30;1;82;82;29.95;45.00
08.09.2022 11:00;1;62;62;30.13;46.00
08.09.2022 11:30;1;54;54;32.04;54.00
08.09.2022 12:00;1;70;70;29.76;39.00
08.09.2022 12:30;1;66;66;32.67;47.00
08.09.2022 13:00;1;82;82;33.06;45.00
08.09.2022 13:30;1;69;69;32.52;49.00
08.09.2022 14:00;1;73;73;33.36;49.00
08.09.2022 14:30;1;88;88;32.58;48.00
08.09.2022 15:00;1;78;78;30.23;42.00
08.09.2022 15:30;1;113;113;29.57;43.00
08.09.2022 16:00;1;121;121;29.88;42.00
08.09.2022 16:30;1;128;128;28.84;41.00
08.09.2022 17:00;1;111;111;28.25;43.00
08.09.2022 17:30;1;125;125;31.47;47.00
08.09.2022 18:00;1;122;122;32.92;47.00
08.09.2022 18:30;1;109;109;32.81;47.00
08.09.2022 19:00;1;84;84;32.94;47.00
08.09.2022 19:30;1;46;46;31.00;40.00
08.09.2022 20:00;1;41;41;30.27;38.00
08.09.2022 20:30;1;40;40;32.70;52.00
08.09.2022 21:00;1;27;27;32.19;44.00
08.09.2022 21:30;1;26;26;31.96;45.00
08.09.2022 22:00;1;19;19;35.37;47.00
08.09.2022 22:30;1;20;20;33.00;41.00
08.09.2022 23:00;1;12;12;33.33;41.00
08.09.2022 23:30;1;16;16;34.88;51.00
09.09.2022 00:00;1;12;12;41.00;61.00
09.09.2022 00:30;1;3;3;46.00;50.00
09.09.2022 01:00;1;4;4;34.25;46.00
09.09.2022 01:30;1;2;2;32.50;36.00
09.09.2022 02:00;1;4;4;37.00;42.00
09.09.2022 03:00;1;2;2;33.50;35.00
09.09.2022 03:30;1;1;1;34.00;34.00
09.09.2022 04:00;1;2;2;40.00;48.00
09.09.2022 04:30;1;8;8;31.50;41.00
09.09.2022 05:00;1;1;1;42.00;42.00
09.09.2022 05:30;1;10;10;32.90;45.00
09.09.2022 06:00;1;14;14;30.79;39.00
09.09.2022 06:30;1;23;23;26.30;38.00
09.09.2022 07:00;1;23;23;29.91;41.00
09.09.2022 07:30;1;50;50;29.94;44.00
09.09.2022 08:00;1;45;45;33.00;52.00
09.09.2022 08:30;1;44;44;30.91;43.00
09.09.2022 09:00;1;37;37;28.51;38.00
09.09.2022 09:30;1;35;35;29.46;39.00
09.09.2022 10:00;1;49;49;29.94;43.00
09.09.2022 10:30;1;54;54;30.31;45.00
09.09.2022 11:00;1;67;67;30.54;49.00
09.09.2022 11:30;1;78;78;33.33;50.00
09.09.2022 12:00;1;88;88;30.82;47.00
09.09.2022 12:30;1;97;97;33.02;47.00
09.09.2022 13:00;1;100;100;30.62;46.00
09.09.2022 13:30;1;87;87;31.87;47.00
09.09.2022 14:00;1;103;103;30.39;43.00
09.09.2022 14:30;1;115;115;33.08;43.00
09.09.2022 15:00;1;112;112;32.12;44.00
09.09.2022 15:30;1;108;108;31.94;53.00
09.09.2022 16:00;1;101;101;31.52;51.00
09.09.2022 16:30;1;95;95;29.71;43.00
09.09.2022 17:00;1;101;101;33.25;49.00
09.09.2022 17:30;1;102;102;33.18;53.00
09.09.2022 18:00;1;101;101;32.17;49.00
09.09.2022 18:30;1;103;103;33.92;48.00
09.09.2022 19:00;1;60;60;34.07;50.00
09.09.2022 19:30;1;50;50;33.96;46.00
09.09.2022 20:00;1;54;54;33.96;46.00
09.09.2022 20:30;1;34;34;35.18;47.00
09.09.2022 21:00;1;24;24;33.54;42.00
09.09.2022 21:30;1;36;36;34.50;44.00
09.09.2022 22:00;1;31;31;36.32;58.00
09.09.2022 22:30;1;18;18;36.61;49.00
09.09.2022 23:00;1;20;20;36.35;51.00
09.09.2022 23:30;1;15;15;34.53;43.00
10.09.2022 00:00;1;17;17;36.71;46.00
10.09.2022 00:30;1;13;13;34.92;49.00
10.09.2022 01:00;1;8;8;37.88;50.00
10.09.2022 01:30;1;6;6;32.33;36.00
10.09.2022 02:00;1;4;4;40.25;47.00
10.09.2022 02:30;1;3;3;33.33;41.00
10.09.2022 03:00;1;3;3;34.00;36.00
10.09.2022 03:30;1;1;1;35.00;35.00
10.09.2022 04:00;1;5;5;37.80;43.00
10.09.2022 04:30;1;4;4;32.00;35.00
10.09.2022 05:00;1;1;1;20.00;20.00
10.09.2022 05:30;1;6;6;36.67;43.00
10.09.2022 06:00;1;9;9;33.67;45.00
10.09.2022 06:30;1;5;5;31.40;41.00
10.09.2022 07:00;1;18;18;33.22;40.00
10.09.2022 07:30;1;24;24;31.67;43.00
10.09.2022 08:00;1;31;31;28.87;41.00
10.09.2022 08:30;1;39;39;30.85;44.00
10.09.2022 09:00;1;45;45;31.71;43.00
10.09.2022 09:30;1;52;52;30.88;43.00
10.09.2022 10:00;1;55;55;31.47;43.00
10.09.2022 10:30;1;64;64;30.23;46.00
10.09.2022 11:00;1;59;59;29.81;40.00
10.09.2022 11:30;1;59;59;30.47;47.00
10.09.2022 12:00;1;84;84;31.83;45.00
10.09.2022 12:30;1;62;62;33.90;48.00
10.09.2022 13:00;1;64;64;34.97;49.00
10.09.2022 13:30;1;62;62;32.97;48.00
10.09.2022 14:00;1;86;86;33.42;53.00
10.09.2022 14:30;1;73;73;34.05;47.00
10.09.2022 15:00;1;76;76;33.22;44.00
10.09.2022 15:30;1;67;67;34.33;43.00
10.09.2022 16:00;1;74;74;32.35;48.00
10.09.2022 16:30;1;77;77;31.61;43.00
10.09.2022 17:00;1;79;79;32.85;48.00
10.09.2022 17:30;1;74;74;35.64;52.00
10.09.2022 18:00;1;71;71;33.58;47.00
10.09.2022 18:30;1;80;80;34.90;44.00
10.09.2022 19:00;1;73;73;33.84;47.00
10.09.2022 19:30;1;58;58;33.60;46.00
10.09.2022 20:00;1;50;50;33.74;43.00
10.09.2022 20:30;1;36;36;32.97;49.00
10.09.2022 21:00;1;24;24;32.71;41.00
10.09.2022 21:30;1;26;26;34.54;44.00
10.09.2022 22:00;1;26;26;32.00;42.00
10.09.2022 22:30;1;24;24;34.33;54.00
10.09.2022 23:00;1;18;18;38.11;48.00
10.09.2022 23:30;1;74;74;33.72;42.00
11.09.2022 00:00;1;71;71;34.21;45.00
11.09.2022 00:30;1;72;72;34.07;44.00
11.09.2022 01:00;1;59;59;34.88;48.00
11.09.2022 01:30;1;14;14;35.71;54.00
11.09.2022 02:00;1;7;7;39.86;48.00
11.09.2022 02:30;1;15;15;37.40;81.00
11.09.2022 03:00;1;5;5;40.00;44.00
11.09.2022 03:30;1;7;7;36.57;45.00
11.09.2022 04:00;1;1;1;32.00;32.00
11.09.2022 04:30;1;1;1;36.00;36.00
11.09.2022 05:00;1;4;4;28.00;33.00
11.09.2022 05:30;1;5;5;40.60;57.00
11.09.2022 06:00;1;5;5;31.20;35.00
11.09.2022 06:30;1;3;3;33.33;41.00
11.09.2022 07:00;1;5;5;34.00;38.00
11.09.2022 07:30;1;8;8;33.88;43.00
11.09.2022 08:00;1;30;30;32.63;59.00
11.09.2022 08:30;1;31;31;32.52;43.00
11.09.2022 09:00;1;44;44;30.84;44.00
11.09.2022 09:30;1;35;35;30.94;50.00
11.09.2022 10:00;1;44;44;32.98;48.00
11.09.2022 10:30;1;71;71;32.80;44.00
11.09.2022 11:00;1;74;74;33.51;45.00
11.09.2022 11:30;1;75;75;33.88;48.00
11.09.2022 12:00;1;83;83;33.12;50.00
11.09.2022 12:30;1;75;75;32.55;42.00
11.09.2022 13:00;1;87;87;31.84;44.00
11.09.2022 13:30;1;81;81;32.93;49.00
11.09.2022 14:00;1;108;108;33.44;48.00
11.09.2022 14:30;1;83;83;33.16;55.00
11.09.2022 15:00;1;82;82;32.50;55.00
11.09.2022 15:30;1;88;88;32.80;47.00
11.09.2022 16:00;1;82;82;31.96;45.00
11.09.2022 16:30;1;71;71;34.06;54.00
11.09.2022 17:00;1;95;95;31.42;40.00
11.09.2022 17:30;1;69;69;31.19;43.00
11.09.2022 18:00;1;82;82;33.18;46.00
11.09.2022 18:30;1;71;71;32.68;52.00
11.09.2022 19:00;1;48;48;31.73;43.00
11.09.2022 19:30;1;37;37;29.95;41.00
11.09.2022 20:00;1;52;52;30.56;41.00
11.09.2022 20:30;1;36;36;33.89;50.00
11.09.2022 21:00;1;27;27;32.19;60.00
11.09.2022 21:30;1;14;14;31.57;36.00
11.09.2022 22:00;1;13;13;35.08;43.00
11.09.2022 22:30;1;19;19;31.42;41.00
11.09.2022 23:00;1;11;11;35.27;42.00
11.09.2022 23:30;1;7;7;32.57;41.00
12.09.2022 00:00;1;6;6;32.50;39.00
12.09.2022 00:30;1;5;5;32.60;43.00
12.09.2022 01:00;1;4;4;45.25;47.00
12.09.2022 01:30;1;1;1;30.00;30.00
12.09.2022 02:30;1;1;1;33.00;33.00
12.09.2022 04:00;1;1;1;29.00;29.00
12.09.2022 04:30;1;5;5;26.80;29.00
12.09.2022 05:00;1;8;8;30.25;44.00
12.09.2022 05:30;1;6;6;33.67;43.00
12.09.2022 06:00;1;28;28;29. Jul;40.00
12.09.2022 06:30;1;39;39;27.28;37.00
12.09.2022 07:00;1;46;46;28. Apr;41.00
12.09.2022 07:30;1;29;29;26.48;38.00
12.09.2022 08:00;1;33;33;26.85;46.00
12.09.2022 08:30;1;42;42;28. Dez;39.00
12.09.2022 09:00;1;44;44;27.68;41.00
12.09.2022 09:30;1;58;58;26.98;37.00
12.09.2022 10:00;1;66;66;27. Nov;43.00
12.09.2022 10:30;1;57;57;26.74;40.00
12.09.2022 11:00;1;54;54;28.78;42.00
12.09.2022 11:30;1;71;71;29.99;40.00
12.09.2022 12:00;1;79;79;30. Sep;43.00